Probability
0 0 0 0 0 0 0 0 0 0 0 0 0 0 0 0 0 0 0 0 0 0 0 0 0 0 0 0 0 0 0 0 0 0 0 0 0 0 0 0 0 0 0
0 0 0 0 0 0 0 0 0 0 0 0 0 0 0 0 0 0 0 0 0 0 0 0 0 0 0 0 0 0 0 0 0 0 0 0 0 0 0 0 0 0 0
0 0 0 0 0 0 0 0 0 0 0 0 0 0 0 0 0 0 0 0 0 0 0 0 0 0 0 0 0 0 0 0 0 0 0 0 0 0 0 0 0 0 0
0 0 0 0 0 0 0 0 0 0 0 0 0 0 0 0 0 0 0 0 0 0 0 0 0 0 0 0 0 0 0 0 0 0 0 0 0 0 0 0 0 0 0
0 0 0 0 0 0 0 0 0 0 0 0 0 0 0 0 0 0 0 0 0 0 0 0 0 0 0 0 0 0 0 0 0 0 0 0 0 0 0 0 0 0 0
0 0 0 0 0 0 0 0 0 0 0 0 0 0 0 0 0 0 0 0 0 0 0 0 0 0 0 0 0 0 0 0 0 0 0 0 0 0 0 0 0 0 0
0 0 0 0 0 0 0 0 0 0 0 0 0 0 0 0 0 0 0 0 0 0 0 0 0 0 0 0 0 0 0 0 0 0 0 0 0 0 0 0 0 0 0
0 0 0 0 0 0 0 0 0 0 0 0 0 0 0 0 0 0 0 0 0 0 0 0 0 0 0 0 0 0 0 0 0 0 0 0 0 0 0 0 0 0 0
0 0 0 0 0 0 0 0 0 0 0 0 0 0 0 0 0 0 0 0 0 0 0 0 0 0 0 0 0 0 0 0 0 0 0 0 0 0 0 0 0 0 0
0 0 0 0 0 0 0 0 0 0 0 0 0 0 0 0 0 0 0 0 0 0 0 0 0 0 0 0 0 0 0 0 0 0 0 0 0 0 0 0 0 0 0
0 0 0 0 0 0 0 0 0 0 0 0 0 0 0 0 0 0 0 0 0 0 0 0 0 0 0 0 0 0 0 0 0 0 0 0 0 0 0 0 0 0 0
0 0 0 0 0 0 0 0 0 0 0 0 0 0 0 0 0 0 0 0 0 0 0 0 0 0 0 0 0 0 0 0 0 0 0 0 0 0 0 0 0 0 0
0 0 0 0 0 0 0 0 0 0 0 0 0 0 0 0 0 0 0 0 0 0 0 0 0 0 0 0 0 0 0 0 0 0 0 0 0 0 0 0 0 0 0
0 0 0 0 0 0 0 0 0 0 0 0 0 0 0 0 0 0 0 0 0 0 0 0 0 0 0 0 0 0 0 0 0 0 0 0 0 0 0 0 0 0 0
0 0 0 0 0 0 0 0 0 0 0 0 0 0 0 0 0 0 0 0 0 0 0 0 0 0 0 0 0 0 0 0 0 0 0 0 0 0 0 0 0 0 0
0 0 0 0 0 0 0 0 0 0 0 0 0 0 0 0 0 0 0 0 0 0 0 0 0 0 0 0 0 0 0 0 0 0 0 0 0 0 0 0 0 0 0
0 0 0 0 0 0 0 0 0 0 0 0 0 0 0 0 0 0 0 0 0 0 0 0 0 0 0 0 0 0 0 0 0 0 0 0 0 0 0 0 0 0 0
0 0 0 0 0 0 0 0 0 0 0 0 0 0 0 0 0 0 0 0 0 0 0 0 0 0 0 0 0 0 0 0 0 0 0 0 0 0 0 0 0 0 0
0 0 0 0 0 0 0 0 0 0 0 0 0 0 0 0 0 0 0 0 0 0 0 0 0 0 0 0 0 0 0 0 0 0 0 0 0 0 0 0 0 0 0
0 0 0 0 0 0 0 0 0 0 0 0 0 0 0 0 0 0 0 0 0 0 0 0 0 0 0 0 0 0 0 0 0 0 0 0 0 0 0 0 0 0 0
0 0 0 0 0 0 0 0 0 0 0 0 0 0 0 0 0 0 0 0 0 0 0 0 0 0 0 0 0 0 0 0 0 0 0 0 0 0 0 0 0 0 0
0 0 0 0 0 0 0 0 0 0 0 0 0 0 0 0 0 0 0 0 0 0 0 0 0 0 0 0 0 0 0 0 0 0 0 0 0 0 0 0 0 0 0
0 0 0 0 0 0 0 0 0 0 0 0 0 0 0 0 0 0 0 0 0 0 0 0 0 0 0 0 0 0 0 0 0 0 0 0 0 0 0 0 0 0 0
0 0 0 0 0 0 0 0 0 0 0 0 0 0 0 0 0 0 0 0 0 0 0 0 0 0 0 0 0 0 0 0 0 0 0 0 0 0 0 0 0 0 0
0 0 0 0 0 0 0 0 0 0 0 0 0 0 0 0 0 0 0 0 0 0 0 0 0 0 0 0 0 0 0 0 0 0 0 0 0 0 0 0 0 0 0
0 0 0 0 0 0 0 0 0 0 0 0 0 0 0 0 0 0 0 0 0 0 0 0 0 0 0 0 0 0 0 0 0 0 0 0 0 0 0 0 0 0 0
Wind_Speed
6 5 5 5 5 6 5 6 6 6 7 7 8 8 8 8 7 6 7 8 8 8 8 9 10 8 7 6 5 5 5 5 6 4 4 5 10 9 10 8 7 8 8
4 5 5 5 5 5 6 6 7 7 7 7 7 7 8 8 8 8 8 8 9 9 9 10 11 8 11 8 7 8 7 6 6 6 4 5 7 12 10 9 7 7 6
3 4 5 5 5 5 5 6 7 7 8 8 7 7 7 8 8 8 8 9 10 10 10 11 11 11 13 9 9 9 8 6 5 6 6 4 3 8 10 7 7 5 7
4 4 5 5 6 6 6 6 7 7 8 8 8 8 8 8 9 9 9 9 10 11 11 12 12 13 13 12 11 12 9 9 7 5 5 5 4 7 9 8 7 7 6
4 6 6 7 7 8 8 8 7 7 9 8 9 10 10 9 8 10 10 10 11 12 12 13 14 16 18 15 13 11 11 11 10 8 6 5 7 10 12 10 10 7 6
4 6 7 8 9 9 9 9 10 10 9 9 10 11 12 12 19 23 18 12 12 13 14 14 14 15 18 23 25 22 20 17 16 15 12 11 14 11 11 12 11 9 8
5 7 8 9 10 10 10 11 11 11 11 14 14 13 14 17 27 28 25 16 14 15 15 15 13 12 14 14 20 26 26 31 29 20 18 18 14 15 16 16 16 12 10
7 8 8 8 10 10 10 11 12 11 13 15 17 17 19 23 31 32 30 20 17 17 17 17 17 16 15 16 14 16 19 22 26 22 19 15 11 14 18 17 15 8 5
7 8 8 8 9 11 13 14 14 14 16 16 18 18 20 24 33 36 35 17 17 20 18 18 18 19 24 27 20 19 20 20 27 27 22 16 15 21 20 11 12 11 5
7 8 9 9 10 13 15 16 15 16 19 20 21 20 20 22 31 38 39 18 19 19 17 17 21 26 27 29 21 19 22 20 13 15 20 19 14 18 30 21 17 16 8
7 9 10 9 10 13 15 15 15 17 19 19 22 21 21 23 30 37 39 22 19 19 17 15 15 28 31 32 29 20 25 19 11 14 14 12 10 11 16 16 14 13 13
8 10 10 10 11 12 13 15 14 15 18 18 19 20 17 18 23 28 35 34 32 23 20 16 16 28 31 31 26 26 31 25 11 12 14 16 15 14 11 11 9 5 4
10 11 12 12 10 11 13 15 14 13 14 16 16 17 16 15 17 29 33 35 37 26 19 26 28 31 30 24 28 30 23 15 14 15 16 16 12 10 9 9 8 6 6
12 13 13 13 13 12 11 12 12 13 14 15 16 17 17 16 15 15 15 18 24 23 19 19 26 29 27 21 16 19 15 14 15 15 13 10 9 10 11 11 10 11 9
13 14 14 13 13 13 12 11 15 14 17 20 17 17 19 18 19 29 24 18 16 19 22 17 13 11 12 12 12 12 13 13 14 13 12 12 12 13 11 10 10 11 10
13 13 12 12 12 13 14 14 21 26 32 36 35 33 24 31 38 39 38 38 38 37 27 17 15 13 13 12 12 11 12 13 13 13 13 13 13 13 12 10 11 11 10
12 14 12 12 13 13 14 15 17 19 27 33 35 36 34 36 37 37 36 36 35 34 22 16 15 13 12 10 10 10 11 11 11 12 12 13 13 13 13 13 12 12 10
11 13 13 12 12 12 13 15 15 17 18 17 22 30 33 33 33 34 34 29 20 19 15 14 14 13 10 9 8 8 8 9 9 10 12 13 13 14 14 14 13 12 10
11 10 10 11 11 12 13 14 14 16 16 17 16 19 23 27 30 30 28 15 12 12 11 11 11 10 8 7 7 7 8 9 9 10 11 13 13 13 13 13 12 14 11
9 14 14 11 11 11 12 13 13 14 15 15 15 15 15 16 14 15 14 12 12 10 9 8 8 7 7 7 7 7 8 9 10 9 10 11 11 12 13 13 12 12 10
9 11 13 11 10 11 11 12 13 13 13 14 14 17 26 15 13 15 14 14 12 9 6 4 4 5 6 6 7 8 9 8 9 9 10 10 11 10 10 11 11 11 10
7 8 9 9 9 10 11 11 12 12 13 14 13 15 22 13 12 12 13 14 14 12 9 5 3 2 2 3 5 7 8 8 9 9 10 10 10 11 11 11 11 11 11
6 8 8 8 8 10 10 10 11 11 12 12 13 13 12 12 12 12 13 13 13 12 12 10 9 8 7 6 5 5 7 8 9 11 12 12 11 12 12 13 14 13 12
5 6 8 8 8 8 9 10 10 11 11 12 11 11 12 12 12 13 12 12 12 12 11 11 11 13 14 10 8 7 7 8 9 9 12 12 12 12 12 12 12 14 12
5 5 6 6 7 8 9 10 10 11 11 11 11 11 12 12 12 12 11 11 12 13 15 13 10 11 13 13 10 9 11 12 10 9 9 10 12 12 12 13 11 12 10
5 5 5 5 6 6 7 9 9 11 11 11 11 11 12 12 12 11 11 11 11 11 12 11 14 14 13 11 13 13 13 14 13 12 9 9 11 11 11 10 12 10 9
Wind_Direction
18 13 12 6 3 358 357 354 347 341 341 342 340 333 324 313 302 288 274 266 258 254 246 241 241 235 237 232 227 222 210 186 190 183 167 162 169 179 184 182 186 186 200
14 1 352 349 351 347 344 340 335 331 327 325 326 327 323 316 306 293 283 273 262 257 251 246 243 234 234 224 218 222 221 209 177 168 168 159 179 184 177 181 187 191 198
10 352 338 336 335 328 326 324 323 321 318 315 313 310 309 308 303 292 281 274 266 259 252 250 247 235 235 224 217 218 218 220 205 165 166 158 157 174 168 178 189 192 201
358 344 329 322 319 313 307 301 299 301 304 303 302 296 291 289 290 286 282 276 271 265 257 253 249 241 238 226 223 220 211 213 213 187 166 160 154 164 169 176 189 194 194
344 332 320 317 314 309 302 295 290 287 289 287 288 288 286 283 277 278 277 272 273 272 266 259 254 249 242 231 227 220 210 214 211 204 189 165 173 171 186 182 192 182 197
326 307 302 301 298 295 294 294 294 293 290 287 282 280 279 280 285 287 283 273 268 268 269 264 258 252 250 243 235 224 214 214 215 213 209 202 197 190 179 179 174 170 200
297 287 283 281 280 280 281 283 285 288 289 292 289 285 280 278 283 284 281 276 268 265 264 264 260 251 244 245 245 238 229 225 220 217 220 218 201 191 183 184 187 185 193
285 281 280 281 285 290 291 291 292 292 290 289 288 288 287 284 285 284 283 278 269 263 259 257 258 256 244 239 237 237 235 233 228 224 227 224 205 191 192 192 191 167 86
284 287 297 307 311 311 306 303 303 301 295 291 287 285 283 284 287 288 287 281 272 266 260 255 252 254 251 244 238 236 238 238 237 228 226 223 214 197 185 172 169 167 163
298 312 321 322 317 310 306 304 302 299 295 294 290 289 287 286 287 288 288 283 275 269 263 255 249 250 251 248 239 233 236 235 220 224 224 222 213 203 193 188 182 184 171
322 320 315 313 308 301 298 296 297 295 293 291 289 287 284 284 286 286 285 280 274 272 266 259 252 254 253 249 242 235 236 231 212 213 214 207 197 197 198 196 194 190 183
319 313 308 302 297 297 292 292 290 289 289 288 287 286 284 285 287 288 287 284 280 273 267 262 255 258 256 253 248 240 237 234 218 210 212 211 207 203 197 189 188 189 182
315 309 303 299 295 292 291 293 292 287 285 287 287 288 290 289 291 294 295 294 291 284 275 269 263 259 258 257 253 246 236 226 214 211 213 213 206 193 180 175 165 132 103
308 307 306 306 302 297 292 291 290 288 286 285 285 285 285 283 282 282 281 286 290 294 293 285 277 267 261 254 248 246 232 219 212 212 210 201 185 184 187 183 177 163 145
305 305 306 303 301 299 293 286 287 279 278 284 283 281 284 284 279 281 280 278 277 279 287 288 279 269 257 250 244 232 223 214 209 206 199 192 188 189 189 181 176 172 170
306 306 305 304 301 299 298 294 290 291 292 291 290 290 289 289 293 291 288 284 283 280 279 275 272 264 256 249 240 225 215 211 206 200 193 189 187 186 179 174 175 179 179
298 302 301 300 299 298 298 299 300 298 294 295 294 294 294 294 294 292 288 284 279 276 271 266 266 262 255 249 237 220 213 207 199 194 189 184 181 177 173 173 177 183 185
298 297 296 294 294 296 297 297 298 301 303 300 299 300 301 302 301 298 293 288 276 265 254 254 255 254 244 234 226 215 206 197 194 189 182 178 175 173 173 176 180 183 180
300 298 296 295 296 297 298 299 299 299 300 302 304 306 308 308 306 301 299 289 280 269 253 243 241 236 225 214 208 203 197 190 185 181 176 173 171 170 172 174 176 177 172
300 299 301 300 302 303 304 305 307 307 308 310 312 315 316 315 313 313 311 301 287 271 257 241 225 213 204 198 194 189 183 178 175 172 167 165 165 167 168 168 169 169 168
303 303 304 306 308 309 310 311 312 314 316 318 319 321 331 334 329 326 327 324 318 302 269 229 202 193 190 183 177 174 168 166 163 158 156 156 156 156 156 158 158 156 153
304 308 310 310 312 314 316 317 318 320 323 323 325 327 335 337 335 336 337 338 342 346 351 6 34 50 98 141 152 151 150 148 146 145 144 145 145 145 146 147 149 149 147
308 308 311 313 314 318 322 325 325 327 329 329 331 334 338 342 344 345 346 348 353 360 7 18 30 35 41 50 68 108 132 140 142 143 143 143 144 146 147 148 148 145 143
304 308 314 319 323 328 330 330 331 333 334 336 339 342 345 346 348 351 353 356 2 9 16 25 36 44 50 53 57 67 86 107 122 135 140 143 144 145 144 143 142 141 139
309 310 315 321 327 332 333 334 336 338 341 344 347 348 350 352 355 359 1 4 9 16 22 24 28 36 49 57 65 78 101 110 117 124 130 135 137 137 136 134 133 133 134
315 319 322 326 330 334 337 338 339 342 345 349 351 353 355 357 360 3 7 12 16 19 23 25 30 39 46 55 68 81 93 103 108 113 117 122 124 124 125 124 127 129 133